Seyi Olu Awofeso
Seyi Olu Awofeso
1737
OFFLINE
7 years ago
50

Articles

List of articles by this author. See other tabs for other types of contribution

DateTitleHitsRating
08/11/2014 11:19:02Foreigners Panic Over Nigeria719 / 0
06/27/2014 12:59:54Triage for the haemorrhage416 / 0
06/18/2014 15:30:59Goodluck Jonathan and his enemies449 / 0
04/04/2014 08:19:18Nigeria and the Crimean Conundrum564 / 0
03/07/2014 09:34:11Who stole ₦38.23billion at Nigeria's Central Bank?594 / 0
12/21/2013 13:44:50Journalism Betrayed1451 / 2
11/22/2013 07:48:25Leaky sieves of Nigeria's treasury842 / 0
10/26/2013 13:00:45Jonathan, Obama, and, Al Qaeda634 / 0
10/12/2013 09:19:06Armoury for the Catechist768 / 0
09/24/2013 01:43:55Why Nigeria Voted "No!" at United Nations838 / 0
09/15/2013 09:56:24State of Nigerian Nation in 2013775 / 0
09/04/2013 19:12:34PDP's laws change at night787 / 0
08/18/2013 23:00:43"Nigeria long past the happy hour"1166 / 0
07/25/2013 11:26:52Home truth from Buenos Aires 1187 / 0
07/01/2013 13:18:37Road to Nigeria's Revolution851 / 0
05/26/2013 20:37:45Terror in Nigeria's Supreme Court1428 / 0
04/09/2013 21:14:46Sultan of Sokoto's Dilemma906 / 0
03/28/2013 22:16:49Czech President Impeached For State Pardon1706 / 0
03/25/2013 10:11:34For a Ministry of Logical Thinking 1196 / 0
03/13/2013 16:48:03Encyclical to United Nations1300 / 0
01/17/2013 05:05:502/3rds Of 19 States: Awolowo V Shagari1931 / 0
01/14/2013 14:05:19Stealing is the Problem with Nigeria1115 / 0
12/16/2012 10:37:41"alpha Beta Ltd And Its True Federalism"1959 / 0
12/09/2012 12:04:15Path To Nigerians' Freedom1525 / 1
08/12/2012 13:20:23Nigeria Goes Rogue From Merida Convention779 / 0
07/13/2012 15:08:22"At 5.30pm; July 13, 2012"1219 / 0
03/15/2012 13:52:47Action Congress (AC) And Lagos State Finances1493 / 0
03/04/2012 11:02:55Governor Emmanuel Uduaghan And The Queen Of England1541 / 0
01/17/2012 10:21:06Tics And Kinetics Of Nigeria's Revolt760 / 0
01/09/2012 12:03:14Nigeria's Day Of Rage1167 / 2
03/11/2011 00:49:42Invading Abidjan Is No-brainer1066 / 0
11/12/2010 13:03:53Judge Okeke's Headache For Jonathan's Signature1294 / 0
09/23/2009 14:41:18The Law, The S.A.N, And, The Holy Writ1488 / 0
06/07/2009 18:56:02General Obasanjo's Albatrosses1542 / 0
04/08/2009 16:34:13Iwu's Tenure And Falana's Tenor1351 / 0
01/04/2009 10:45:13Buhari Vs. Yar'Adua: The Un-resolved Issue1746 / 0
11/21/2008 09:06:57'They, the People'1052 / 0
06/23/2008 03:06:30Nigeria: Who Is In The Garden?1272 / 0
03/27/2008 13:36:2620 Questions for Head of State1501 / 1
02/18/2008 10:20:10The Trials of Maurice Iwu1441 / 0
01/13/2008 06:56:21Yar'Adua's Nigeria in 20071506 / 2
01/02/2008 11:23:47Why Obasanjo Is Not Liable For Treason On Bakassi2042 / 1
01/01/2008 09:38:33Devils in Ribadu's Details1575 / 2
12/11/2007 04:33:16"Our Flag shall be our Symbol?"1870 / 0
12/06/2007 13:56:43Now, President Yar'Adua bruises the Senate over Bakassi1992 / 6
11/26/2007 14:32:00Nigeria's Senate bluster over Bakassi2677 / 7
11/11/2007 07:48:15Nigeria's Political Triangulation1458 / 1

Contact Info

Seyi Olu Awofeso
Seyi Olu Awofeso